Presure
173 171 185 156 180 132 184 186 140 148 175 179 178 159 135 178 124 180 173 145 180 168 163 180 177 189 178 172 188 198 201 217 204 238 221 224 225 207 237 221 232 213 224 190 194 192 196
171 185 190 186 166 185 124 162 185 178 165 118 173 175 167 147 167 137 153 172 184 180 188 183 182 175 167 217 210 213 229 222 226 235 222 223 240 232 240 236 236 224 236 220 206 196 195
184 183 130 188 181 181 149 177 176 187 159 189 178 133 174 163 178 207 186 180 194 222 185 184 201 193 202 229 212 215 218 212 217 234 251 259 252 281 244 246 230 220 226 222 208 197 190
197 171 165 191 177 178 168 188 192 180 187 134 163 197 176 127 123 173 187 218 178 186 214 174 226 204 232 223 216 220 220 241 299 275 266 272 270 291 262 226 301 228 230 210 207 206 196
207 185 200 202 182 184 157 201 185 176 171 120 151 204 134 169 187 198 168 210 226 170 227 226 218 218 220 218 218 226 247 282 271 263 275 280 306 304 287 300 286 234 228 219 204 203 201
142 203 196 207 209 175 122 192 140 215 204 141 137 180 206 175 145 212 211 229 184 209 229 225 221 221 232 220 236 256 256 298 287 290 293 297 297 296 277 274 280 235 225 225 207 204 202
212 177 184 214 136 139 226 223 212 224 208 205 206 118 215 209 199 229 235 234 226 224 229 223 227 229 216 240 249 267 250 296 299 296 285 271 275 273 267 269 267 230 233 217 224 221 212
156 206 211 175 196 190 118 204 188 150 122 206 204 184 178 164 223 203 236 223 230 225 221 225 224 232 225 237 258 321 306 309 311 288 281 268 258 255 253 249 253 258 221 220 204 205 207
150 123 216 217 209 214 214 211 210 206 201 124 205 189 216 237 204 230 227 226 228 224 230 223 243 236 251 260 314 308 310 305 282 287 277 265 254 246 247 242 242 233 236 225 217 207 211
223 213 221 222 211 208 207 215 152 202 209 204 189 214 172 226 224 235 234 219 222 225 235 241 241 248 263 291 318 299 298 301 290 285 283 265 260 248 240 238 235 237 228 224 214 218 212
226 217 226 217 212 204 208 163 203 207 216 215 207 179 228 229 229 222 232 234 232 231 230 249 242 239 281 307 266 314 314 294 285 275 264 270 260 251 243 236 229 227 227 230 220 212 216
217 228 223 219 216 214 208 206 207 211 203 161 215 220 238 221 220 238 236 228 232 240 232 242 229 271 301 297 289 313 314 300 286 276 267 261 262 246 245 236 238 238 232 226 225 221 221
227 216 214 214 212 204 209 208 213 215 145 217 228 229 214 235 217 241 231 232 240 247 251 256 259 271 285 302 308 307 306 296 291 281 275 255 256 254 240 239 233 230 232 231 226 228 223
225 231 230 221 219 219 219 214 217 214 221 232 231 246 240 237 232 235 229 247 284 261 277 242 260 285 319 311 304 302 310 301 291 285 285 269 247 253 249 239 237 233 226 228 228 227 220
255 249 228 228 232 235 228 223 219 229 237 231 229 235 245 233 228 249 246 251 243 240 262 260 290 299 306 312 304 293 292 295 292 292 283 285 264 256 250 246 241 231 228 228 227 223 217
267 244 243 245 236 236 239 241 237 239 245 241 247 225 238 238 229 254 236 232 265 244 259 297 302 312 312 314 314 312 310 310 303 285 293 288 280 289 249 242 245 234 233 223 222 213 215
271 241 250 229 244 238 231 229 241 240 246 226 229 260 257 228 231 238 270 261 282 266 300 295 309 322 322 316 320 317 312 295 300 304 290 280 282 287 258 249 242 244 233 229 226 224 232
277 279 255 260 252 250 236 230 243 231 233 223 249 241 235 231 241 253 249 264 293 289 297 313 318 316 313 306 297 289 289 302 309 292 289 306 259 289 278 257 251 245 237 238 238 231 230
277 261 273 265 264 267 263 263 246 253 241 267 253 260 242 252 280 281 274 294 284 291 314 309 302 294 290 309 337 310 297 287 280 297 296 298 309 266 280 277 255 248 244 240 236 233 234
268 260 256 256 257 273 260 265 255 238 233 250 250 253 280 281 266 282 293 277 302 317 304 290 373 436 422 412 311 427 448 382 330 274 287 296 297 316 275 275 272 257 250 248 244 236 241
277 271 270 268 268 266 262 255 253 271 244 285 294 282 276 286 270 279 292 306 304 293 287 369 372 405 406 402 438 451 414 437 414 334 272 283 294 307 282 276 271 267 258 251 250 249 246
293 287 278 285 284 283 286 282 284 282 266 277 280 280 267 281 281 295 302 294 285 330 315 357 364 387 387 424 407 417 423 408 427 358 314 272 275 285 304 273 276 272 265 256 252 251 251
278 279 283 275 278 269 272 269 275 269 276 265 272 276 294 285 294 292 282 278 330 311 331 352 354 374 377 395 393 402 419 438 427 363 317 292 271 273 280 301 294 284 274 263 257 251 245
269 273 269 272 283 267 267 264 272 271 277 280 283 283 283 279 288 281 272 317 309 296 322 329 335 370 361 377 382 386 401 430 402 347 306 292 292 277 270 284 307 310 283 279 259 256 254
270 269 276 276 276 272 271 281 278 286 288 280 280 286 278 284 275 272 307 305 291 320 307 325 324 350 376 373 380 387 392 417 374 339 303 296 300 289 277 272 283 297 310 287 277 270 267
274 275 275 277 278 282 283 281 267 277 277 275 277 281 275 269 283 300 295 294 314 318 299 317 327 332 346 355 354 346 370 398 364 334 309 299 303 313 289 271 267 271 309 290 277 278 278
270 273 271 277 273 270 274 274 271 273 275 275 275 270 268 296 297 292 304 302 335 305 295 333 324 355 345 348 345 341 355 403 356 330 305 305 305 308 314 309 268 264 291 294 280 275 274
275 275 269 269 245 265 279 275 271 271 267 265 266 269 298 293 284 305 313 341 320 294 316 353 351 339 341 346 339 333 324 360 343 324 315 315 311 322 296 307 292 259 275 289 292 277 278
258 266 264 264 259 246 244 235 260 257 259 289 293 291 285 284 287 315 317 344 290 314 328 368 344 349 332 326 333 326 326 345 348 318 314 310 309 314 282 293 285 257 274 289 292 278 269
Wind_Speed
87 81 89 76 83 69 80 77 65 63 77 76 77 81 78 83 63 85 78 78 80 77 78 83 83 87 86 81 90 88 95 96 100 76 85 89 90 80 87 80 81 72 74 72 69 67 71
84 94 94 91 81 90 68 78 83 80 78 55 82 83 84 81 85 73 78 86 77 82 83 85 89 90 77 82 90 92 83 83 86 83 81 90 92 90 84 78 76 69 71 70 72 71 70
99 97 69 96 93 92 79 84 86 87 73 86 87 75 89 78 91 90 92 84 86 84 84 87 86 90 88 82 82 83 85 90 91 89 93 88 85 83 78 73 68 66 65 67 70 73 66
101 86 90 102 93 91 88 95 89 89 88 76 80 89 94 74 70 93 92 88 85 87 85 74 75 79 81 79 81 87 89 94 80 80 83 76 75 74 72 65 69 69 63 63 69 72 67
101 108 109 106 100 101 87 96 94 86 87 54 75 90 80 90 95 92 85 92 94 81 87 79 75 74 79 81 84 91 88 80 69 73 70 68 62 62 62 56 69 68 63 62 64 68 70
70 110 106 107 104 91 70 94 63 89 90 75 75 94 98 99 78 97 95 99 91 86 87 81 78 83 88 82 97 93 83 61 58 58 59 53 50 45 54 60 61 64 62 66 67 73 73
108 94 98 109 72 73 96 89 88 87 88 91 95 57 101 98 93 104 101 95 86 88 91 88 88 89 80 94 92 78 75 54 50 52 52 54 49 47 52 51 57 67 71 67 78 77 78
82 103 114 88 100 99 67 94 91 74 56 93 91 89 85 88 108 98 103 92 92 91 91 85 84 88 86 89 83 62 58 48 44 47 50 52 54 54 53 56 64 63 67 73 69 71 76
74 66 113 111 111 107 104 102 99 98 94 55 91 93 108 112 92 107 101 97 95 95 102 90 99 86 93 84 68 62 57 49 43 44 51 53 56 58 55 58 62 67 67 72 81 75 81
119 114 117 113 108 106 105 106 80 98 104 96 87 107 87 106 103 104 102 91 95 94 101 104 99 97 96 80 62 57 56 52 46 40 42 53 56 59 61 62 64 60 69 73 75 78 77
116 118 116 115 111 103 107 86 103 109 110 106 100 96 113 111 109 100 103 108 103 98 90 104 92 87 92 69 70 54 49 49 49 43 43 42 51 57 63 65 67 65 66 70 77 74 76
114 116 114 116 114 112 110 105 107 109 90 89 109 115 116 102 103 108 105 100 99 100 90 95 82 96 75 71 66 51 46 46 48 50 43 45 47 60 60 66 59 61 64 68 71 71 70
112 112 110 110 110 101 111 109 112 114 81 113 118 118 103 112 96 110 104 99 103 108 103 101 94 81 75 68 57 50 46 46 47 51 52 50 49 58 64 65 64 61 64 68 68 67 69
112 118 117 116 115 117 116 114 113 113 121 124 117 119 112 111 107 107 99 113 103 104 96 87 89 84 63 57 54 50 47 47 48 50 51 52 56 54 61 67 66 66 65 65 63 65 67
111 112 110 115 118 115 115 114 114 117 118 116 108 110 110 103 99 109 107 103 94 92 93 91 84 75 66 59 55 52 50 49 48 51 52 50 57 58 63 65 69 70 70 67 67 68 67
111 105 110 114 113 114 112 114 115 115 118 115 117 102 105 104 97 103 99 93 90 90 89 82 75 70 65 57 56 52 51 52 53 52 53 53 53 55 67 69 70 72 71 68 66 61 67
99 98 107 103 111 109 106 105 109 112 116 102 104 114 109 95 98 98 93 93 89 89 80 79 74 66 62 59 57 57 55 49 52 54 56 55 55 53 69 71 70 71 74 73 71 70 72
76 81 98 98 106 109 105 102 106 102 105 99 105 102 99 97 98 98 93 92 85 84 78 74 69 66 63 61 55 52 49 48 51 54 55 57 56 55 62 70 70 73 73 75 73 73 69
76 79 71 78 82 85 92 87 100 98 101 92 98 94 95 94 87 85 89 82 82 80 72 70 68 65 62 63 61 60 55 51 47 53 57 58 57 59 60 64 72 72 74 74 71 69 67
74 81 81 81 83 77 86 83 89 95 95 90 91 88 83 78 83 83 78 78 77 68 68 69 51 35 37 41 32 39 41 57 60 54 56 58 56 58 60 64 68 73 73 72 73 70 68
74 73 76 74 73 76 79 81 84 82 87 79 70 75 76 75 74 76 76 71 68 66 65 50 44 34 35 32 23 15 37 41 53 55 59 58 55 54 63 64 66 69 71 70 68 68 67
58 64 66 66 67 68 67 69 66 66 74 71 71 71 73 75 72 68 66 64 64 59 57 43 36 30 31 15 18 15 18 35 45 52 58 60 56 54 54 65 71 68 67 68 67 65 63
57 60 60 63 61 62 63 65 64 65 67 68 69 69 66 66 63 61 60 62 55 57 51 40 36 29 25 13 14 11 13 22 42 49 54 60 61 59 57 60 70 64 66 66 66 64 54
57 58 60 60 59 62 62 63 65 66 66 64 64 63 63 59 58 57 57 53 52 54 47 39 36 26 24 16 10 12 14 22 45 51 57 64 67 61 60 58 56 55 62 64 64 62 60
57 59 58 59 61 62 61 61 62 59 57 59 60 59 56 56 56 56 52 50 50 43 45 40 34 28 12 2 8 5 8 24 49 56 63 66 66 62 60 51 47 48 56 57 59 60 59
57 57 58 57 57 56 55 53 56 56 55 54 55 54 52 54 55 52 50 48 45 40 41 42 33 25 22 13 7 5 6 23 52 59 64 67 65 60 55 47 49 47 53 58 56 54 51
59 58 58 57 58 56 55 54 54 54 53 53 53 51 51 53 50 49 48 47 38 39 40 38 35 20 17 13 9 7 2 21 53 58 62 65 59 55 49 47 51 48 45 53 55 51 48
58 58 58 56 49 52 53 53 52 52 50 51 50 51 50 49 48 48 46 39 36 39 40 27 24 21 15 13 13 14 19 16 50 58 61 61 53 51 41 45 50 51 49 49 58 54 53
58 58 57 56 54 47 48 45 48 49 48 51 48 49 48 47 47 46 44 34 33 38 34 19 22 18 15 14 19 21 22 17 46 56 57 53 46 43 45 45 51 55 52 50 58 57 60
Wind_Direction
284 283 284 278 286 275 285 285 267 281 283 284 280 279 272 283 285 285 286 289 289 285 289 288 288 291 287 289 285 282 279 280 277 285 276 273 274 279 273 276 272 272 265 265 264 266 269
285 284 284 283 280 285 272 283 284 282 283 280 282 282 278 276 281 283 285 286 290 288 286 285 284 286 287 283 281 281 281 277 280 284 282 274 271 273 273 271 268 267 261 259 260 264 266
281 281 269 281 283 284 278 284 282 282 277 280 280 276 282 283 283 287 280 284 290 288 285 283 283 285 278 290 277 278 283 275 279 283 285 278 273 270 271 266 264 262 258 255 257 260 262
282 286 279 279 282 282 278 280 277 280 278 272 280 275 281 283 288 283 284 292 285 283 289 281 285 291 292 290 283 287 284 292 284 281 278 274 273 263 264 267 252 255 254 252 255 258 263
280 280 277 276 281 282 280 278 280 277 274 279 278 280 274 279 284 279 284 292 291 281 291 293 289 286 291 290 288 289 291 287 278 278 274 272 267 264 258 251 251 250 248 249 254 258 260
264 276 277 277 275 274 282 278 278 278 279 272 273 274 286 279 273 291 288 290 282 288 292 294 291 293 297 290 298 294 292 283 275 272 269 265 262 252 252 251 247 248 248 246 250 253 254
278 278 280 279 266 268 282 280 279 279 279 279 280 287 288 288 286 293 291 289 292 295 298 295 297 297 287 299 295 294 288 284 273 266 258 258 256 248 245 242 244 245 242 245 248 243 249
271 277 278 272 277 281 280 283 283 283 283 279 283 285 276 284 294 288 293 293 294 294 293 294 294 296 292 295 295 294 290 287 268 258 252 249 249 247 244 243 244 239 244 240 247 249 250
272 273 276 276 277 282 283 284 285 287 285 283 290 288 292 287 284 291 290 293 294 294 293 294 298 295 300 299 298 295 291 286 273 257 249 245 242 245 240 240 242 244 237 239 240 248 246
273 272 275 273 276 280 281 282 261 282 282 285 287 289 291 287 288 291 291 291 291 291 294 296 298 299 302 304 292 290 287 281 275 264 251 244 238 238 240 239 242 239 239 237 242 244 249
268 269 269 271 274 276 278 266 279 281 281 284 284 284 287 287 289 289 289 289 290 291 294 297 296 295 304 294 299 286 274 269 270 264 248 239 236 235 236 238 241 244 239 240 243 249 248
265 267 266 269 272 273 274 276 278 279 283 279 284 284 284 285 287 288 287 290 290 293 295 296 293 303 296 293 292 283 272 265 259 256 246 239 233 233 234 237 238 237 237 239 239 243 243
258 263 265 267 268 272 273 275 275 277 275 281 282 282 283 283 286 287 287 290 293 295 294 298 300 297 296 288 282 276 268 262 255 253 250 235 233 229 234 235 236 236 237 237 238 240 242
258 259 260 263 265 267 269 271 274 275 277 275 279 280 282 282 284 286 290 291 295 294 296 296 299 296 286 282 278 274 266 257 253 250 246 240 232 230 229 233 231 232 235 235 238 241 244
249 250 257 260 262 263 265 268 272 271 273 276 277 279 280 282 285 288 289 290 292 294 296 297 295 292 288 281 276 272 267 260 253 249 244 243 233 228 229 228 229 232 235 235 236 238 244
247 251 254 255 259 260 262 264 267 269 271 274 276 279 280 285 286 288 289 291 292 293 296 290 290 288 283 279 274 269 261 257 254 249 246 242 237 234 228 230 228 232 233 239 239 243 245
250 250 251 257 257 259 261 265 264 267 270 273 275 278 282 283 286 288 291 293 291 295 289 291 289 286 281 278 271 266 263 258 254 250 246 239 236 231 225 228 231 229 234 237 240 242 243
253 254 253 254 255 257 259 263 265 268 270 273 276 278 280 283 286 289 291 292 289 290 290 290 288 286 284 280 274 269 262 258 248 248 245 240 231 229 227 227 229 231 233 235 237 241 245
244 249 255 255 257 258 261 263 264 268 270 273 276 279 280 285 284 284 288 285 289 290 290 290 289 287 284 278 272 266 260 251 241 240 241 240 235 229 227 225 228 231 233 236 239 243 247
245 247 249 253 257 259 261 262 265 266 269 274 277 280 280 282 285 285 285 290 289 291 292 292 292 286 280 274 273 260 247 243 241 235 236 236 234 229 226 225 224 229 231 233 237 243 246
246 248 251 254 256 259 261 264 266 269 272 273 273 274 279 279 285 286 287 289 291 292 293 304 300 295 291 285 272 272 246 231 226 228 232 232 230 227 224 224 225 224 230 232 234 238 243
253 249 251 256 258 260 264 262 268 269 273 273 274 275 280 281 284 286 289 291 292 304 302 310 305 301 303 306 289 272 239 224 213 214 220 229 225 223 220 223 225 224 226 232 235 237 240
252 253 254 255 257 259 260 263 266 267 268 270 275 274 275 282 286 288 291 291 305 302 308 314 312 306 309 282 292 279 247 212 200 201 211 221 223 221 220 219 226 222 224 226 231 236 234
250 252 254 256 257 259 262 265 267 269 270 272 273 275 281 286 288 289 289 301 302 300 308 313 314 309 306 298 278 278 246 211 188 193 204 216 220 219 220 221 223 219 224 224 228 231 235
247 250 251 253 256 259 262 261 264 265 267 272 275 278 285 288 288 291 299 300 299 301 306 311 309 314 307 32 52 344 248 205 185 190 203 213 219 217 220 219 219 216 213 218 221 225 230
246 248 250 252 254 256 258 261 267 268 272 277 279 282 285 286 290 295 296 297 301 299 304 308 305 305 291 281 123 106 220 200 185 191 203 212 216 218 220 217 217 218 213 211 216 216 221
247 249 251 252 255 260 262 264 267 271 274 277 280 283 285 289 292 293 298 299 298 298 301 303 299 285 274 266 199 129 246 201 186 194 203 214 216 218 215 216 214 215 213 212 212 210 208
247 249 252 255 256 258 260 263 267 270 274 277 280 283 287 289 289 298 299 302 298 296 301 291 273 273 261 222 172 172 190 191 190 195 203 210 216 216 210 210 211 212 210 209 208 205 198
251 251 253 256 258 258 261 263 267 271 273 278 283 285 287 288 292 299 300 299 293 300 301 246 258 237 235 231 193 193 195 190 195 197 204 209 213 214 202 206 209 212 207 206 204 201 194